Temperature
18 17 17 17 17 17 16 16 16 16 16 16 16 15 15 15 15 15 15 15 15 15 15 14 14 14 14 14 14 14 14 14 14 14 14 14 14 14 14 13 13 13 13
18 17 17 17 17 17 16 16 16 16 16 16 15 15 15 15 15 15 15 15 15 15 14 14 14 14 14 14 14 14 14 14 14 14 14 14 14 13 13 13 13 13 13
18 17 17 17 16 16 16 16 16 16 16 15 15 15 15 15 15 15 15 15 15 15 15 14 14 14 14 14 14 14 14 14 14 14 14 15 15 14 13 13 13 13 13
17 17 17 16 16 16 16 16 16 16 15 15 15 15 15 15 15 15 15 15 15 14 14 14 14 14 14 14 14 14 14 14 14 14 14 14 14 14 14 13 13 13 13
17 17 16 16 16 16 16 16 16 15 15 15 15 15 15 15 15 15 14 14 14 14 14 14 14 14 14 14 14 14 14 14 14 14 13 13 14 14 14 14 13 13 13
17 16 16 16 16 16 16 16 15 15 15 15 15 15 15 15 15 14 14 14 14 14 14 14 14 14 14 14 14 14 14 14 14 14 14 13 14 14 14 14 13 13 13
17 16 16 16 16 16 16 15 15 15 15 15 15 15 15 15 14 14 14 14 14 14 14 14 14 14 14 14 14 14 14 14 14 13 13 13 13 13 14 14 14 13 13
17 16 16 16 15 15 15 15 15 15 15 15 15 15 14 14 14 14 14 14 14 14 14 14 14 14 14 14 14 14 14 14 13 13 13 13 13 13 13 13 13 13 13
17 16 16 16 15 15 15 15 15 15 15 15 15 14 14 14 14 14 14 14 14 14 14 13 13 13 13 13 13 13 13 13 13 13 13 13 13 13 13 13 13 13 14
16 16 16 15 15 15 15 15 15 15 15 15 14 14 14 14 14 14 13 13 13 13 13 13 13 13 13 13 13 13 13 13 13 13 13 13 13 13 13 13 13 13 13
16 16 15 15 15 15 15 15 15 15 15 14 14 14 14 14 14 13 13 13 13 13 13 13 13 13 13 13 13 13 13 13 13 13 13 13 13 13 13 13 13 13 13
16 15 15 15 15 15 15 14 14 14 14 14 14 14 14 14 13 13 13 13 13 13 13 13 13 13 13 13 13 13 13 13 13 13 13 13 13 13 13 13 13 13 12
15 15 15 14 14 14 14 14 14 14 14 14 14 14 13 13 13 13 13 13 13 13 13 13 13 13 13 13 13 12 12 12 13 13 13 12 12 12 12 12 12 12 12
15 15 14 14 14 14 14 14 14 14 14 14 13 13 13 13 13 13 13 13 13 13 13 13 13 13 13 13 12 12 12 12 12 12 12 12 12 12 12 12 12 12 12
15 14 14 14 14 14 14 14 13 13 13 13 13 13 13 13 13 13 13 13 13 13 12 12 12 12 12 12 12 12 12 12 12 12 12 12 12 12 12 12 12 12 12
14 14 14 14 14 14 14 13 13 13 13 13 13 13 12 12 12 12 12 12 12 12 12 12 12 12 12 12 12 12 12 12 12 12 12 12 12 12 12 12 12 12 12
14 14 14 13 14 13 13 13 13 13 12 12 12 12 12 12 12 12 12 12 12 12 12 12 12 12 12 12 12 12 11 11 11 11 11 11 12 12 11 11 12 12 12
13 13 13 13 13 13 13 13 13 12 12 12 12 12 12 11 12 12 11 11 12 12 12 12 12 12 12 12 11 11 11 11 11 11 11 11 11 11 11 11 11 11 11
13 13 13 12 12 12 12 12 12 12 12 11 11 11 11 11 11 11 11 11 11 11 11 11 11 11 11 11 11 11 11 11 11 11 11 11 11 11 11 11 11 11 11
12 12 12 12 12 12 12 12 12 12 11 11 11 11 11 11 11 11 10 10 10 11 11 11 11 11 10 11 11 10 10 10 10 10 10 11 11 11 11 10 10 10 10
12 12 12 12 12 11 11 11 11 11 11 11 11 11 11 10 10 10 10 10 10 10 10 10 10 10 10 10 10 10 10 10 10 10 10 10 10 10 10 10 10 10 10
11 11 11 11 11 11 11 11 10 10 10 10 10 10 10 10 10 10 10 10 9 9 9 9 9 9 10 10 10 10 10 10 9 9 9 10 10 10 10 10 10 10 9
11 11 10 10 10 10 10 10 10 10 10 10 10 10 10 10 10 9 9 9 9 9 9 9 9 9 9 9 9 9 9 9 9 9 9 9 9 9 9 9 9 9 9
10 10 10 10 10 10 10 10 10 10 9 9 10 9 9 9 9 9 9 9 8 8 8 8 8 8 8 8 8 8 8 9 9 9 9 9 9 9 9 9 9 8 8
10 10 10 9 9 9 9 9 9 9 9 9 9 9 9 9 9 9 8 8 8 8 8 8 8 8 8 8 8 8 8 8 8 8 8 8 8 8 8 8 8 8 8
9 9 9 9 9 9 9 9 9 9 9 9 9 9 8 8 8 8 8 8 8 8 8 8 7 7 8 8 8 8 8 8 8 8 7 7 7 7 7 7 7 7 7
Wind_Speed
2 2 2 2 3 2 2 3 3 3 3 2 2 2 2 2 2 2 3 3 3 3 3 3 3 3 3 3 3 3 4 3 3 3 3 4 4 4 3 3 3 4 5
3 3 3 3 2 2 2 3 3 3 3 2 2 2 2 2 3 2 3 2 2 2 2 3 3 3 3 3 3 3 2 2 1 1 1 2 2 3 3 3 2 3 3
3 3 3 3 3 2 3 3 3 3 3 4 3 3 3 3 3 2 2 2 2 2 2 2 3 3 3 3 3 3 3 2 2 1 1 1 1 1 2 2 2 3 2
2 2 2 3 3 3 3 3 3 3 3 4 4 4 3 3 3 2 2 2 2 2 1 2 2 3 2 3 3 3 2 2 2 1 1 2 1 1 1 2 2 2 2
3 2 3 2 2 2 3 3 3 3 3 3 3 4 3 2 2 2 3 2 2 1 1 1 1 2 2 3 3 3 2 2 2 1 1 1 1 2 1 1 1 1 2
3 3 2 2 2 2 3 3 3 3 3 3 4 4 4 3 3 3 3 2 2 1 1 1 1 2 2 2 2 3 3 3 3 2 2 2 2 2 1 1 1 1 1
3 3 3 3 3 3 3 4 4 4 4 4 4 4 4 4 4 3 3 3 2 1 1 2 2 2 2 2 3 3 3 4 4 3 2 2 2 2 2 2 1 1 1
3 3 3 3 4 4 4 5 5 5 4 4 4 4 4 3 3 3 3 3 3 2 2 2 2 2 2 2 3 3 3 3 4 4 3 3 2 2 2 2 2 2 2
3 3 3 3 4 5 5 6 6 6 5 5 5 4 4 4 4 4 4 3 2 2 3 3 3 2 2 2 2 2 3 3 3 3 4 3 2 2 2 2 2 2 2
2 3 3 3 3 4 4 5 6 6 6 6 5 4 5 5 4 4 4 4 4 3 3 3 3 3 2 3 3 3 3 3 3 3 3 3 2 2 2 2 2 3 2
2 3 2 2 2 2 3 4 5 5 5 5 6 5 5 5 4 4 4 4 4 4 4 4 4 3 3 3 3 3 3 3 3 4 4 4 3 2 2 2 2 2 2
2 2 2 2 1 1 2 3 3 4 4 5 5 5 5 5 5 5 5 5 4 4 4 4 4 3 3 3 4 4 4 3 3 3 3 3 3 3 3 3 3 3 3
2 3 2 2 1 1 1 2 2 3 3 4 5 5 5 5 5 5 5 5 4 4 4 4 4 3 3 3 3 4 3 3 3 3 3 3 3 4 3 3 3 3 3
3 3 3 2 2 1 1 2 2 2 3 3 4 4 5 5 5 5 4 5 4 4 4 4 4 3 3 3 3 4 4 3 3 3 4 3 4 4 3 3 4 3 4
3 3 3 3 2 1 1 1 2 2 2 3 3 3 3 3 4 4 4 4 4 4 4 3 3 3 2 2 3 3 4 3 3 3 3 3 1 2 2 2 3 4 4
3 3 3 3 3 2 2 2 1 2 2 2 3 2 3 3 3 3 3 3 3 3 3 3 3 3 2 1 1 3 3 3 3 3 3 3 2 2 2 1 1 2 4
3 3 3 3 3 3 2 2 2 2 2 2 2 3 3 3 3 3 3 3 3 3 3 3 3 3 2 3 2 3 3 3 3 3 3 2 2 3 3 4 5 3 2
3 3 3 3 3 3 2 2 2 2 2 2 2 2 3 3 3 3 3 3 3 3 3 3 4 3 2 3 2 3 4 4 4 4 4 3 3 3 3 4 4 4 3
3 3 2 2 2 2 2 2 2 2 2 2 3 3 3 3 4 4 4 3 3 3 3 3 3 3 2 3 2 3 3 3 4 4 4 3 4 2 3 4 5 4 3
2 2 2 1 2 2 2 3 3 3 3 3 3 3 3 3 4 4 4 3 3 3 3 3 3 3 3 3 3 4 3 3 3 3 3 2 3 3 4 5 5 5 4
2 2 1 1 2 2 2 3 3 3 3 3 3 3 3 3 4 3 3 3 3 4 4 3 3 3 3 3 3 3 3 3 3 3 3 2 2 4 5 6 5 4 4
2 2 2 1 2 2 3 3 3 3 3 2 3 3 3 3 3 3 3 3 3 4 4 4 4 3 3 2 3 4 3 3 4 4 3 2 2 3 4 4 2 3 4
2 2 2 2 2 2 3 3 2 2 2 3 3 3 3 3 3 4 4 3 4 4 4 4 4 3 3 2 3 4 4 4 4 3 1 0 2 2 3 3 3 5 5
3 3 3 3 3 2 2 2 2 2 3 4 4 4 4 3 3 3 4 4 4 4 4 4 4 4 3 3 2 3 3 3 3 2 1 2 2 2 1 2 3 4 4
2 3 3 3 3 2 2 2 2 3 4 4 4 4 3 3 3 3 3 4 4 4 4 4 4 4 4 3 2 2 3 3 3 2 2 2 2 2 2 2 3 3 3
2 3 3 3 3 2 2 2 3 3 4 3 3 3 3 3 3 3 2 1 2 0 1 2 3 3 2 1 2 3 2 2 3 3 3 3 3 4 4 4 3 3 4
Wind_Direction
149 140 143 146 156 160 166 158 161 159 154 147 147 139 133 120 107 101 100 106 109 123 133 145 143 142 136 139 141 130 123 120 127 125 106 93 74 69 67 60 59 61 53
159 153 157 154 158 158 170 172 166 164 163 164 164 156 131 122 114 109 100 103 125 137 157 169 159 157 151 161 158 152 148 149 200 217 170 150 132 81 68 69 60 62 62
184 169 174 169 168 169 177 179 175 167 169 168 158 141 126 137 138 127 115 104 119 142 168 173 184 178 179 178 185 186 192 178 181 304 307 299 118 126 95 69 74 65 53
179 176 182 183 179 182 185 183 176 172 170 168 170 163 166 167 164 151 141 135 129 142 138 159 191 191 188 189 199 205 209 204 189 183 303 326 12 231 150 140 94 67 52
185 191 191 196 190 178 180 185 177 176 177 179 179 189 184 180 161 153 151 151 147 145 143 168 191 202 204 208 206 209 221 219 225 221 204 191 230 261 250 173 151 121 88
186 195 192 194 194 184 183 183 180 180 184 192 193 194 186 185 178 178 170 171 165 169 170 202 203 218 224 222 215 216 217 231 238 244 236 233 241 246 243 224 186 155 113
187 190 194 199 203 199 192 189 186 188 190 199 205 202 199 200 203 197 191 198 189 193 212 224 217 216 231 235 231 231 232 227 227 233 244 251 258 262 257 243 213 184 158
195 198 206 212 211 206 203 198 197 195 195 203 214 214 204 206 210 214 206 206 205 203 214 228 232 231 231 239 234 246 243 242 234 232 231 236 243 243 248 238 218 208 192
203 205 207 218 216 208 207 207 204 201 199 206 216 215 206 207 210 213 210 209 213 212 219 225 224 226 228 241 244 250 249 249 247 242 234 232 222 225 228 233 237 244 236
208 204 202 214 218 213 212 212 212 208 204 207 211 213 209 207 213 214 213 215 217 218 221 227 225 225 226 236 246 253 258 246 235 244 241 230 221 215 212 219 235 255 258
219 207 204 201 212 213 211 212 213 214 210 211 211 208 208 205 206 213 219 222 225 220 224 229 231 228 232 238 237 247 246 246 234 221 224 219 214 209 206 211 220 230 225
193 182 180 170 186 207 219 221 219 213 211 214 212 209 204 203 207 211 215 218 220 223 228 229 228 224 230 241 244 245 246 247 248 238 228 221 202 214 218 214 215 219 223
179 177 175 178 182 196 224 245 237 223 208 204 209 210 207 204 205 211 212 217 217 218 221 224 230 225 228 232 239 246 248 248 248 245 240 233 222 219 216 217 219 218 212
194 192 197 203 199 200 221 254 245 232 208 195 203 210 213 209 209 208 211 216 215 216 220 223 227 231 231 232 235 243 247 248 250 248 244 242 238 238 231 222 221 216 207
219 218 221 224 226 228 250 265 252 239 213 198 203 209 213 213 212 205 205 209 212 216 219 218 222 225 227 233 237 239 247 247 244 246 244 246 271 339 281 251 228 211 208
245 240 233 231 238 240 245 254 242 236 211 207 212 208 205 207 210 208 201 204 207 212 215 217 218 219 217 124 263 258 237 243 241 243 239 223 208 195 193 228 270 251 226
268 257 245 239 244 248 250 252 243 226 212 216 213 206 201 206 212 205 201 204 208 212 219 215 219 224 204 149 187 242 243 244 245 245 240 228 218 211 208 191 192 209 246
272 273 268 260 252 250 252 247 229 218 222 229 221 213 206 206 205 205 211 215 219 215 218 223 223 221 199 156 194 236 235 239 241 243 245 235 221 208 223 215 211 214 216
274 277 274 269 257 246 237 228 225 224 229 239 238 226 218 208 204 209 215 217 216 218 223 226 231 226 203 148 171 233 240 239 240 241 243 244 236 185 240 227 220 216 216
274 269 265 265 249 239 226 225 228 233 241 246 243 237 226 218 216 217 217 215 213 217 221 222 229 230 227 157 169 232 236 239 239 240 236 237 249 200 220 229 226 226 229
280 262 237 243 250 236 224 227 234 242 250 254 253 246 236 230 229 223 217 213 213 218 224 225 231 233 235 183 179 220 239 243 249 247 246 233 181 208 228 246 240 237 241
272 247 230 238 249 226 220 228 241 255 249 240 243 241 235 232 224 214 218 217 215 219 226 231 234 238 233 217 200 212 244 273 247 250 256 246 177 221 235 243 233 220 235
261 249 236 235 238 231 229 235 244 246 237 231 240 243 236 232 227 218 218 217 219 224 230 232 235 237 241 225 197 210 228 254 255 255 300 270 196 223 232 235 216 216 232
247 234 222 225 237 243 247 256 255 241 235 239 244 238 236 238 230 221 216 216 219 223 228 231 235 239 239 243 234 234 233 228 243 249 177 168 201 231 249 219 223 236 243
245 233 225 225 235 241 260 274 262 244 242 243 242 241 240 243 238 226 226 227 229 231 231 233 234 233 236 243 249 231 234 235 237 230 229 231 228 235 241 244 247 242 237
245 236 236 234 232 235 257 272 270 252 247 247 243 241 244 248 238 218 213 196 240 251 256 277 267 256 267 169 191 227 242 215 180 200 223 232 235 239 242 242 243 245 247
Height
1532 1533 1533 1534 1535 1536 1536 1537 1538 1538 1539 1539 1540 1540 1541 1541 1541 1542 1542 1542 1542 1542 1543 1543 1543 1543 1543 1543 1544 1543 1544 1544 1544 1544 1544 1544 1543 1543 1542 1542 1542 1541 1541
1531 1532 1533 1533 1534 1534 1535 1536 1537 1537 1538 1538 1539 1540 1540 1541 1541 1542 1542 1542 1543 1543 1543 1543 1543 1543 1543 1543 1544 1544 1544 1544 1544 1545 1545 1545 1545 1543 1543 1542 1542 1542 1541
1530 1531 1532 1533 1533 1533 1534 1535 1536 1537 1537 1538 1539 1539 1540 1540 1541 1541 1542 1542 1543 1543 1543 1543 1544 1543 1544 1544 1544 1544 1544 1544 1544 1544 1545 1544 1544 1544 1544 1543 1543 1542 1542
1529 1530 1531 1532 1532 1533 1533 1534 1535 1536 1537 1537 1538 1538 1539 1540 1540 1541 1541 1542 1542 1542 1542 1543 1543 1544 1543 1543 1544 1544 1544 1544 1544 1544 1543 1544 1544 1544 1544 1544 1543 1542 1542
1527 1529 1530 1530 1531 1532 1532 1533 1534 1535 1535 1536 1537 1538 1539 1539 1540 1540 1541 1541 1541 1541 1542 1542 1542 1543 1543 1543 1543 1543 1543 1543 1543 1543 1543 1543 1543 1543 1543 1543 1543 1542 1542
1526 1527 1528 1529 1530 1530 1531 1531 1532 1533 1534 1535 1536 1537 1538 1538 1539 1539 1540 1540 1540 1540 1541 1541 1541 1542 1542 1542 1542 1542 1542 1542 1542 1542 1542 1542 1543 1543 1543 1542 1542 1542 1542
1524 1525 1526 1527 1527 1528 1529 1530 1530 1531 1532 1533 1534 1535 1536 1537 1538 1538 1539 1539 1539 1540 1540 1540 1540 1540 1541 1541 1541 1541 1541 1541 1541 1541 1541 1541 1541 1541 1542 1542 1541 1541 1542
1523 1523 1524 1525 1525 1526 1527 1528 1529 1530 1531 1531 1532 1534 1534 1535 1536 1536 1537 1538 1538 1538 1538 1538 1539 1539 1539 1539 1539 1540 1540 1540 1540 1540 1540 1540 1540 1540 1540 1541 1541 1540 1541
1521 1522 1522 1523 1524 1524 1525 1526 1527 1528 1529 1530 1531 1531 1532 1533 1534 1534 1535 1536 1536 1536 1537 1537 1537 1538 1537 1538 1538 1538 1538 1538 1538 1538 1538 1538 1538 1538 1538 1539 1539 1540 1539
1519 1520 1521 1521 1522 1522 1523 1524 1525 1526 1527 1527 1528 1529 1530 1531 1531 1532 1533 1533 1534 1534 1535 1535 1536 1536 1536 1536 1536 1536 1536 1536 1536 1536 1536 1536 1536 1536 1536 1537 1537 1538 1538
1517 1518 1519 1519 1520 1520 1521 1522 1522 1523 1524 1525 1526 1527 1527 1528 1529 1529 1530 1531 1531 1532 1533 1533 1533 1534 1534 1534 1534 1534 1534 1534 1535 1534 1535 1535 1535 1535 1535 1535 1535 1536 1537
1516 1517 1518 1518 1518 1518 1519 1519 1520 1521 1521 1522 1523 1524 1524 1525 1526 1527 1528 1528 1529 1529 1530 1530 1531 1531 1531 1532 1532 1532 1532 1532 1532 1533 1533 1533 1533 1533 1533 1533 1534 1534 1534
1514 1515 1516 1516 1516 1517 1517 1517 1517 1518 1518 1519 1520 1521 1522 1522 1523 1524 1525 1526 1526 1527 1527 1528 1528 1529 1529 1529 1530 1530 1530 1530 1530 1530 1531 1531 1531 1531 1531 1531 1532 1532 1532
1513 1513 1514 1514 1515 1515 1515 1515 1515 1515 1516 1516 1517 1518 1519 1519 1520 1521 1522 1523 1524 1524 1525 1525 1526 1526 1526 1527 1527 1528 1528 1528 1528 1528 1528 1528 1529 1529 1529 1529 1529 1530 1530
1511 1511 1512 1512 1513 1513 1513 1513 1513 1513 1513 1514 1514 1515 1516 1516 1517 1518 1519 1520 1521 1522 1522 1523 1523 1524 1524 1524 1525 1525 1525 1525 1525 1525 1525 1525 1525 1526 1526 1527 1527 1527 1528
1509 1509 1510 1510 1510 1511 1511 1511 1511 1511 1511 1511 1512 1512 1513 1513 1514 1515 1516 1517 1518 1519 1519 1520 1521 1521 1521 1521 1522 1522 1522 1523 1523 1523 1523 1523 1523 1523 1523 1524 1524 1525 1525
1507 1507 1508 1508 1508 1509 1509 1509 1509 1509 1509 1509 1510 1510 1510 1511 1512 1512 1513 1514 1515 1516 1517 1517 1518 1518 1519 1519 1519 1519 1519 1520 1520 1520 1520 1520 1520 1520 1521 1521 1521 1522 1522
1505 1505 1506 1506 1506 1506 1507 1507 1507 1507 1507 1507 1507 1508 1508 1508 1509 1509 1510 1511 1512 1513 1513 1514 1515 1515 1515 1516 1516 1516 1516 1517 1517 1517 1517 1517 1517 1517 1518 1518 1519 1519 1519
1503 1503 1503 1503 1503 1504 1504 1505 1505 1505 1505 1505 1505 1506 1506 1506 1506 1506 1507 1508 1509 1510 1511 1511 1512 1512 1512 1513 1513 1513 1514 1514 1514 1514 1514 1514 1514 1514 1515 1515 1516 1516 1516
1501 1501 1501 1501 1501 1501 1502 1502 1502 1502 1503 1503 1503 1503 1503 1503 1503 1503 1504 1505 1506 1507 1508 1508 1509 1509 1509 1510 1510 1510 1511 1511 1511 1511 1511 1511 1511 1511 1511 1512 1513 1513 1513
1498 1498 1498 1498 1498 1499 1499 1499 1499 1499 1500 1500 1500 1500 1500 1500 1501 1501 1502 1502 1503 1504 1505 1505 1505 1506 1506 1506 1507 1507 1507 1508 1508 1508 1508 1508 1507 1508 1508 1508 1509 1509 1510
1495 1495 1495 1495 1496 1496 1496 1496 1497 1497 1497 1497 1497 1497 1497 1497 1498 1498 1499 1499 1500 1501 1501 1502 1502 1502 1503 1503 1503 1504 1504 1504 1504 1504 1504 1504 1504 1504 1504 1504 1505 1505 1506
1492 1492 1492 1493 1493 1493 1493 1494 1494 1494 1494 1494 1494 1494 1494 1494 1495 1495 1495 1496 1496 1497 1497 1498 1498 1499 1499 1499 1499 1500 1500 1500 1500 1500 1500 1500 1500 1500 1500 1500 1501 1501 1502
1490 1490 1490 1490 1490 1490 1491 1491 1491 1491 1491 1491 1491 1491 1491 1491 1491 1491 1491 1492 1492 1493 1494 1494 1494 1494 1495 1495 1495 1495 1496 1496 1496 1496 1496 1496 1496 1496 1496 1496 1496 1497 1497
1487 1487 1487 1487 1487 1487 1487 1488 1488 1488 1488 1488 1488 1488 1488 1487 1487 1488 1488 1488 1489 1489 1489 1490 1490 1490 1490 1491 1491 1491 1491 1492 1492 1492 1492 1492 1492 1492 1492 1492 1492 1492 1492
1484 1484 1484 1484 1484 1484 1485 1485 1485 1485 1485 1485 1485 1485 1484 1484 1484 1484 1484 1484 1485 1485 1485 1486 1486 1486 1486 1486 1487 1487 1487 1488 1488 1488 1488 1488 1488 1488 1488 1488 1488 1488 1488